DW6561 Weather Reports


Display with metric or nautical units.
time (UTC)temp
F
wind
direction
speed
MPH
gust
MPH
rain 1hr
in
rain 24hr
in
rain mn
in
humidity
%
barometer
mb
20260502163037 65 302 0.0 3.0 0.00 0.00 0.00 54 1015.1
20260502161512 64 299 0.0 2.0 0.00 0.00 0.00 56 1015.0
20260502151503 59 292 0.0 1.0 0.00 0.00 0.00 64 1015.0
20260502123005 55 226 0.0 1.0 0.00 0.00 0.00 67 1014.3
20260502121509 55 226 0.0 2.0 0.00 0.00 0.00 67 1014.3
20260502114520 56 226 0.0 0.0 0.00 0.00 0.00 63 1014.2
20260502113016 56 226 0.0 0.0 0.00 0.00 0.00 63 1014.2
20260502111511 57 226 0.0 2.0 0.00 0.00 0.00 62 1014.2
20260502104516 57 226 0.0 0.0 0.00 0.00 0.00 61 1014.1
20260502103018 57 226 0.0 3.0 0.00 0.00 0.00 61 1014.2
20260502101520 57 184 0.0 0.0 0.00 0.00 0.00 59 1014.1
20260502091511 58 202 0.0 3.0 0.00 0.00 0.00 58 1014.1
20260502071516 60 214 0.0 4.0 0.00 0.00 0.00 56 1014.0
20260502070004 61 70 0.0 0.0 0.00 0.00 0.00 55 1014.1
20260502064504 61 70 0.0 0.0 0.00 0.00 0.00 54 1014.0
20260502063012 62 70 0.0 0.0 0.00 0.00 0.00 53 1014.1
20260502061519 62 70 0.0 0.0 0.00 0.00 0.00 52 1014.0
20260502060017 63 70 0.0 0.0 0.00 0.00 0.00 52 1013.9
20260502054507 63 70 0.0 0.0 0.00 0.00 0.00 50 1013.8
20260502053008 63 70 0.0 0.0 0.00 0.00 0.00 50 1013.8
20260502051505 64 70 0.0 0.0 0.00 0.00 0.00 48 1013.8
20260502050020 66 70 0.0 0.0 0.00 0.00 0.00 47 1013.8
20260502044524 67 70 0.0 0.0 0.00 0.00 0.00 46 1013.8
20260502043009 68 70 0.0 0.0 0.00 0.00 0.00 45 1013.8
20260502041518 69 70 0.0 0.0 0.00 0.00 0.00 43 1013.8
20260502040012 69 70 0.0 0.0 0.00 0.00 0.00 43 1013.6
20260502034509 70 70 0.0 0.0 0.00 0.00 0.00 42 1013.5
20260502033027 71 70 0.0 0.0 0.00 0.00 0.00 40 1013.4
20260502031512 73 70 0.0 0.0 0.00 0.00 0.00 37 1013.3
20260502030014 74 70 0.0 0.0 0.00 0.00 0.00 36 1013.1
20260502024525 75 70 0.0 0.0 0.00 0.00 0.00 33 1013.2
20260502023017 76 70 0.0 2.0 0.00 0.00 0.00 32 1013.0
20260502020014 77 330 0.0 2.0 0.00 0.00 0.00 32 1013.2
20260502014517 78 332 0.0 2.0 0.00 0.00 0.00 31 1013.4
20260502013023 79 293 0.0 3.0 0.00 0.00 0.00 30 1013.4
20260502011521 79 335 0.0 2.0 0.00 0.00 0.00 29 1013.5
20260502010010 80 304 0.0 4.0 0.00 0.00 0.00 28 1013.6
20260502004508 81 306 0.0 3.0 0.00 0.00 0.00 27 1013.6
20260502003003 82 325 0.0 2.0 0.00 0.00 0.00 24 1013.7
20260502001508 83 278 0.0 3.0 0.00 0.00 0.00 24 1013.8
20260502000015 83 288 0.0 2.0 0.00 0.00 0.00 25 1013.9
20260501234503 83 273 0.0 3.0 0.00 0.00 0.00 25 1014.0
20260501231505 83 279 0.0 3.0 0.00 0.00 0.00 24 1014.3
20260501230002 83 89 1.0 5.0 0.00 0.00 0.00 26 1014.5
20260501223026 82 322 0.0 2.0 0.00 0.00 0.00 26 1014.9
20260501220013 81 331 0.0 3.0 0.00 0.00 0.00 28 1015.4
20260501214503 80 102 2.0 4.0 0.00 0.00 0.00 29 1015.9
20260501213011 79 144 0.0 2.0 0.00 0.00 0.00 30 1016.1
20260501211521 78 305 0.0 4.0 0.00 0.00 0.00 31 1016.2
20260501210004 78 101 1.0 3.0 0.00 0.00 0.00 32 1016.6
20260501204512 77 336 1.0 4.0 0.00 0.00 0.00 31 1016.7
20260501203015 77 352 0.0 4.0 0.00 0.00 0.00 32 1017.0
20260501201511 76 63 0.0 2.0 0.00 0.00 0.00 31 1017.1
20260501200005 76 286 0.0 3.0 0.00 0.00 0.00 33 1017.1
20260501193013 75 303 0.0 4.0 0.00 0.00 0.00 34 1017.4
20260501191514 74 310 0.0 3.0 0.00 0.00 0.00 33 1017.5
20260501190029 74 5 0.0 3.0 0.00 0.00 0.00 35 1017.7
20260501184514 73 324 0.0 3.0 0.00 0.00 0.00 34 1017.9
20260501183008 73 297 0.0 3.0 0.00 0.00 0.00 38 1018.0
20260501181521 71 291 0.0 3.0 0.00 0.00 0.00 40 1018.1
20260501180028 70 308 0.0 3.0 0.00 0.00 0.00 41 1018.0
20260501174525 69 53 0.0 3.0 0.00 0.00 0.00 40 1018.0
20260501173023 68 300 0.0 2.0 0.00 0.00 0.00 43 1018.1
20260501171515 67 11 0.0 3.0 0.00 0.00 0.00 43 1018.1
20260501170010 66 341 0.0 3.0 0.00 0.00 0.00 45 1018.2
20260501164522 65 327 0.0 2.0 0.00 0.00 0.00 48 1018.3